Вернуться в каталог

PERSEUS M2

АктивенВоенныеSSO
NORAD 40037·PAYLOAD·🇷🇺 Russia

Запущен Jun 19, 2014 с Dombarovsky

Loading…

Ближайшие Пролёты (ближайшие 24 часа)

TLE

СвежийSource: Space-Track

Эпоха: Sep 14, 2026, 13:53 UTC

1 40037U 14033AD  26257.57914350  .00000768  00000-0  74375-4 0  9992
2 40037  98.0057 209.9906 0012407  10.9334 349.2154 14.95736563664142

Отслеживайте PERSEUS M2 в реальном времени с AllMySat

Download on the App Store